Weather Roundup
Issued by NWS

Home | Current Version | Previous Version | Text Only | Print | Product List | Glossary On
Versions: 1 2 3 4 5 6 7 8 9 10 11 12 13 14 15 16 17 18 19 20 21 22 23 24 25 26 27 28 29 30 31 32 33 34 35 36 37 38 39 40 41 42 43 44 45 46 47 48 49 50
000
NZUS93 KARX 020659
HRRWXR

CURRENT HOURLY OBSERVATIONS ACROSS
MUCH OF THE UPPER MISSISSIPPI VALLEY
NATIONAL WEATHER SERVICE LA CROSSE WI
200 AM CDT WED SEP 02 2015


...SOUTHEAST MINNESOTA...


CITY           SKY/WX    TMP DP  RH WIND       PRES   REMARKS
ROCHESTER      MOCLDY    72  70  93 S8        29.97F
ROCHESTER/MAYO FAIR      75  71  87 S8        29.96F
WINONA         PTCLDY    73  72  94 CALM      29.95F
AUSTIN         PTCLDY    73  72  94 SE6       29.95F
ALBERT LEA     MOCLDY    75  70  83 S7        29.94F
DODGE CENTER   MOCLDY    73  70  88 S8        29.96F
PRESTON        PTCLDY    73  68  85 S7        29.99S
OWATONNA       CLOUDY    75  70  83 S8        29.93F
FARIBAULT      CLOUDY    72  70  94 SE3       29.93F
$$

...ELSEWHERE IN MINNESOTA...


CITY           SKY/WX    TMP DP  RH WIND       PRES   REMARKS
MINNEAPOLIS    LGT RAIN  77  73  87 SE5       29.92S FOG
INTNL FALLS    CLEAR     51  50  96 CALM      29.90F
DULUTH         CLOUDY    70  67  90 SE3       29.94S
RED WING       CLOUDY    72  72 100 CALM      29.92S FOG
REDWOOD FALLS  TSTM      68  65  90 S14G24    29.93R
MANKATO        CLOUDY    73  70  88 SW10      29.94R
WORTHINGTON    PTCLDY    73  66  78 S12       29.89S
FAIRMONT       CLOUDY    72  63  73 S14       29.90F THUNDER
$$

...SOUTHWEST WISCONSIN...


CITY           SKY/WX    TMP DP  RH WIND       PRES   REMARKS
LA CROSSE      MOCLDY    77  73  87 S7        29.95S
PRAIRIE DU CHI CLEAR     76  68  76 CALM      29.98F
BOSCOBEL       CLEAR     72  70  93 SW3       29.98F FOG
LONE ROCK      NOT AVBL
PLATTEVILLE    PTCLDY    71  69  94 S6        30.01F
FORT MC COY    CLEAR     69  67  95 CALM      29.98S
CAMP DOUGLAS   DRZL/FOG  68  68 100 SE1       29.98S VSB 3/4
VIROQUA          N/A     73  73 100 SW7       30.00F
WIS DELLS      PTCLDY    74  70  85 SW3       29.99S
$$

...ELSEWHERE IN WISCONSIN...


CITY           SKY/WX    TMP DP  RH WIND       PRES   REMARKS
MILWAUKEE      PTCLDY    75  70  84 SW8       30.00S
MADISON        CLEAR     76  70  82 SW6       29.99S
GREEN BAY      CLEAR     70  68  93 CALM      29.96F FOG
EAU CLAIRE     NOT AVBL
BLACK RVR FLS  FOG       66  66 100 CALM      29.97S VSB<1/4
MEDFORD        PTCLDY    69  69 100 S5        29.99F FOG
WAUSAU         PTCLDY    72  71  97 CALM      29.97S FOG
WIS RAPIDS     CLEAR     72  69  90 SW6       29.99F
MARSHFIELD     FOG       72  68  87 SW5       29.99S VSB 1/2
RICE LAKE      FOG       70  69  95 CALM      29.96F VSB 1/2
$$

...NORTHEAST IOWA...


CITY           SKY/WX    TMP DP  RH WIND       PRES   REMARKS
DECORAH        CLEAR     73  70  88 VRB5      29.98F
MASON CITY     MOCLDY    70  68  93 S6        29.96F
CHARLES CITY   PTCLDY    72  72 100 S6        29.98F
OELWEIN          N/A    N/A N/A N/A S6        30.00F
$$

...ELSEWHERE IN IOWA...


CITY           SKY/WX    TMP DP  RH WIND       PRES   REMARKS
DES MOINES     CLOUDY    76  67  73 SW8       29.98R THUNDER
IOWA CITY      CLEAR     69  67  93 CALM      30.00F
FORT DODGE     CLOUDY    73  66  78 S9        29.95S THUNDER
$$

...NORTHERN ILLINOIS...


CITY           SKY/WX    TMP DP  RH WIND       PRES   REMARKS
CHICAGO-OHARE  PTCLDY    75  69  81 SW7       30.02F
CHICAGO-MIDWAY PTCLDY    76  68  76 SW8       30.02F
MOLINE         PTCLDY    73  67  81 CALM      30.01F
ROCKFORD       MOCLDY    72  67  84 CALM      30.03F
PEORIA         CLEAR     75  68  78 S5        30.05F
$$

NOTE: "FAIR" INDICATES FEW OR NO CLOUDS BELOW 12,000 FEET WITH NO
SIGNIFICANT WEATHER AND/OR OBSTRUCTIONS TO VISIBILITY. WIND
SPEEDS ARE IN MILES-PER-HOUR.



USA.gov is the U.S. government's official web portal to all federal, state and local government web resources and services.